Simultaneous Nadir Overpasses (SNOs) Predictions

Prediction of SNOs between GOES-15 and TERRA Satellite Orbit:

Table of predicted SNOs for the next 14.0 days since TLE Epoch: 8/6/2022
Index Date Time (GOES-15) GOES-15 Lat,Lon TERRA Lat,Lon Distance(km) Time Diff (sec)
1 08/07/2022 06:40:41 0.08,-128.00 0.60,-125.67 265.16 80
2 08/07/2022 18:59:16 -0.12,-128.07 0.48,-130.84 314.67 80
3 08/09/2022 18:49:43 -0.11,-128.09 -0.18,-127.89 23.54 80
4 08/11/2022 18:37:29 -0.11,-128.12 -0.78,-124.94 361.26 80
5 08/12/2022 06:56:13 0.15,-128.06 -0.31,-130.14 236.20 80
6 08/14/2022 06:46:39 0.15,-128.08 0.31,-127.19 101.59 80
7 08/14/2022 19:05:14 -0.18,-128.14 0.72,-132.36 479.64 80
8 08/16/2022 06:34:26 0.14,-128.10 0.98,-124.25 439.36 80
9 08/16/2022 18:53:00 -0.17,-128.16 0.10,-129.41 141.67 80
10 08/18/2022 18:43:27 -0.17,-128.18 -0.52,-126.46 195.81 80
11 08/19/2022 07:02:10 0.20,-128.14 -0.56,-131.66 400.33 80
